Location: Gugi
(45.4667°N, 11.1000°E)
Time: 19:35:16
(UTC+00:00)

Cosmos 1328 Rocket - Pass Details

Date: 17 November 2019
Orbit: 600 x 628 km, 82.5° (Epoch: 11 December)

Event Time Altitude Azimuth Distance (km) Brightness Sun altitude
Rises 16:57:00 0° 167° (SSE) 2,897 7.0 -12.8°
Reaches altitude 10° 16:59:20 10° 160° (SSE) 1,992 6.1 -13.2°
Maximum altitude 17:03:25 38° 92° (E) 948 4.0 -13.9°
Drops below altitude 10° 17:07:31 10° 24° (NNE) 1,994 5.8 -14.6°
Enters shadow 17:08:01 - 22° (NNE) 2,185 6.0 -14.7°
